Weather History for Fort Worth, TX

Change the Weather History Date:

Thursday, January 24, 2013

  Actual Average Record
Temperature  
Mean Temperature 66 °F -  
Max Temperature 82 °F 55 °F 82 °F (2013)
Min Temperature 48 °F 34 °F 17 °F (2014)
Cooling Degree Days 1    
Growing Degree Days 16 (Base 50)    
Moisture  
Dew Point 51 °F    
Average Humidity 72    
Maximum Humidity 100    
Minimum Humidity 34    
Precipitation  
Precipitation 0.00 in - - ()
Sea Level Pressure  
Sea Level Pressure 30.09 in    
Wind  
Wind Speed 7 mph (WSW)    
Max Wind Speed 15 mph    
Max Gust Speed 23 mph    
Visibility 10 miles    
Events      
Averages and records for this station are not official NWS values.
T = Trace of Precipitation, MM = Missing Value Source: NWS Daily Summary

Daily Weather History Graph

Daily Weather History Graph

Search for Another Location

Airport:

Trip Planner

Search our weather history database for the weather conditions in past years. The results will help you decide how hot, cold, wet, or windy it might be!

Date:

Astronomy

Jan. 24, 2013 Rise Set
Actual Time 7:28 AM CST 5:54 PM CST
Civil Twilight 7:02 AM CST 6:21 PM CST
Nautical Twilight 6:32 AM CST 6:50 PM CST
Astronomical Twilight 6:03 AM CST 7:20 PM CST
Moon 3:59 PM CST (1/24) 5:25 AM CST (1/24)
Length of Visible Light 11h 18m
Length of Day
10h 25m
Waxing Gibbous, 94% of the Moon is Illuminated
Jan 24
Waxing Gibbous
Jan 26
Full
Feb 3
Last Quarter
Feb 10
New
Feb 17
First Quarter

Hourly Weather History & Observations

Time (CST) Temp. Heat Index Dew Point Humidity Pressure Visibility Wind Dir Wind Speed Gust Speed Precip Events Conditions
12:53 AM 60.1 °F - 55.0 °F 83% 30.12 in 10.0 mi SSW 12.7 mph - N/A   Clear
1:53 AM 59.0 °F - 54.0 °F 83% 30.12 in 10.0 mi SSW 8.1 mph - N/A   Clear
2:53 AM 57.0 °F - 53.1 °F 87% 30.13 in 10.0 mi Calm Calm - N/A   Clear
3:53 AM 55.0 °F - 53.1 °F 93% 30.13 in 10.0 mi SE 3.5 mph - N/A   Clear
4:53 AM 52.0 °F - 52.0 °F 100% 30.13 in 10.0 mi South 6.9 mph - N/A   Clear
5:53 AM 52.0 °F - 52.0 °F 100% 30.14 in 9.0 mi South 6.9 mph - N/A   Clear
6:53 AM 52.0 °F - 52.0 °F 100% 30.14 in 9.0 mi South 6.9 mph - N/A   Clear
7:53 AM 51.1 °F - 51.1 °F 100% 30.15 in 7.0 mi Calm Calm - N/A   Clear
8:53 AM 55.0 °F - 55.0 °F 100% 30.15 in 9.0 mi SSE 4.6 mph - N/A   Clear
9:53 AM 61.0 °F - 55.0 °F 81% 30.16 in 10.0 mi SSE 4.6 mph - N/A   Clear
10:53 AM 64.9 °F - 55.9 °F 73% 30.16 in 10.0 mi SW 4.6 mph - N/A   Clear
11:53 AM 71.1 °F - 57.0 °F 61% 30.13 in 10.0 mi South 5.8 mph - N/A   Clear
12:53 PM 75.0 °F - 57.0 °F 53% 30.09 in 10.0 mi WSW 8.1 mph - N/A   Clear
1:53 PM 79.0 °F - 55.0 °F 44% 30.06 in 10.0 mi West 9.2 mph - N/A   Clear
2:53 PM 81.0 °F 80.4 °F 53.1 °F 38% 30.03 in 10.0 mi Calm Calm - N/A   Clear
3:53 PM 82.0 °F - 51.1 °F 34% 30.01 in 10.0 mi NW 15.0 mph 23.0 mph N/A   Clear
4:13 PM 75.2 °F - 50.0 °F 41% 30.03 in 10.0 mi NNW 12.7 mph - N/A   Clear
4:53 PM 71.1 °F - 48.9 °F 45% 30.03 in 10.0 mi NNW 10.4 mph - N/A   Clear
5:53 PM 66.0 °F - 48.9 °F 54% 30.03 in 10.0 mi NNW 9.2 mph - N/A   Clear
6:53 PM 61.0 °F - 48.0 °F 62% 30.05 in 10.0 mi NNW 8.1 mph - N/A   Clear
7:53 PM 57.0 °F - 46.0 °F 67% 30.06 in 10.0 mi NNW 5.8 mph - N/A   Clear
8:53 PM 54.0 °F - 44.1 °F 69% 30.05 in 10.0 mi Calm Calm - N/A   Clear
9:53 PM 51.1 °F - 43.0 °F 74% 30.05 in 10.0 mi West 3.5 mph - N/A   Clear
10:53 PM 50.0 °F - 42.1 °F 74% 30.04 in 9.0 mi Calm Calm - N/A   Clear
11:53 PM 48.0 °F - 42.1 °F 80% 30.06 in 8.0 mi NW 9.2 mph - N/A   Clear